User: anonymous
Location: Hamburg
(53.5500°N, 10.0000°E)
Time: 20:17:43
(UTC+02:00)
Language:

Iridium 10 - Orbit

View from above orbital plane
View from above orbital plane
View from above satellite
View from above satellite

Ground track
Ground track

The orbit data is extracted from the following two-line orbital elements,

1 24839U 97030D   14273.45058353  .00000562  00000-0  19368-3 0   281
2 24839 086.3976 044.2149 0002234 111.0853 312.3005 14.34221358904955
Epoch (UTC): 30 September 2014 10:48:50
Eccentricity: 0.0002234
inclination: 86.3976°
perigee height: 776 km
apogee height: 779 km
right ascension of ascending node: 44.2149°
argument of perigee: 111.0853°
revolutions per day: 14.34221358
mean anomaly at epoch: 312.3005°
orbit number at epoch: 90495

The dashed part of the orbit path shows where the satellite is in the earth's shadow,  

DLR